Regional Weather Roundup
Issued by NWS Green Bay, WI

Home | Current Version | Previous Version | Text Only | Print | Product List | Glossary On
Versions: 1 2 3 4 5 6 7 8 9 10 11 12 13 14 15 16 17 18 19 20 21 22 23 24 25 26 27 28 29 30 31 32 33 34 35 36 37 38 39 40 41 42 43 44 45 46 47 48 49 50
000
ASUS43 KGRB 030011
RWRGRB

NORTH-CENTRAL AND NORTHEAST WISCONSIN REGIONAL WEATHER ROUNDUP
NATIONAL WEATHER SERVICE GREEN BAY WI
700 PM CDT MON MAY 02 2016

WIZ005-009-010>012-018-019-030100-
NORTH CENTRAL WISCONSIN

CITY           SKY/WX    TMP DP  RH WIND       PRES   REMARKS
IRONWOOD         N/A     57  27  30 W5        29.97F
MANITOWISH WTR SUNNY     59  32  35 N9        29.99S
ARBOR VITAE    MOSUNNY   59  31  33 CALM      29.99S
EAGLE RIVER    MOSUNNY   60  26  26 SW7       29.98F
LAND O LAKES   SUNNY     60  28  29 N7        30.00S
RHINELANDER    PTSUNNY   61  29  29 W7        30.00S
PHILLIPS       CLOUDY    60  31  33 CALM      29.99S
ANTIGO         PTCLDY    59  33  36 CALM      29.99S
TOMAHAWK       CLOUDY    60  29  31 CALM      30.00S
MERRILL        MOSUNNY   59  35  40 SW5       30.00S
$$

WIZ013-073-030100-
NORTHEAST WISCONSIN

CITY           SKY/WX    TMP DP  RH WIND       PRES   REMARKS
IRON MOUNTAIN  CLOUDY    60  31  33 SE8       29.97S
MARINETTE      CLEAR     57  32  38 S8        30.00S
OCONTO         CLEAR     59  36  42 SE7       29.99F
$$

WIZ017-030-035>037-045-030100-
CENTRAL WISCONSIN

CITY           SKY/WX    TMP DP  RH WIND       PRES   REMARKS
MEDFORD        MOSUNNY   59  35  40 CALM      29.99F
WAUSAU         PTSUNNY   62  33  33 NW7       29.97F
MOSINEE        MOSUNNY   61  34  36 NW7       30.00F
MARSHFIELD     SUNNY     62  32  32 NW3       29.99F
WISC RAPIDS    SUNNY     63  30  28 N6        30.01F
STEVENS POINT  CLOUDY    61  32  33 N5        29.99F
WAUPACA        MOCLDY    64  28  25 CALM      29.99S
SHAWANO        CLEAR     62  30  29 CALM      29.98F
CLINTONVILLE   CLOUDY    63  30  29 CALM      29.98F
WAUTOMA        CLOUDY    62  31  31 SE5       30.00S
$$

WIZ038-039-048-051-030100-
FOX VALLEY

CITY           SKY/WX    TMP DP  RH WIND       PRES   REMARKS
NWS GREEN BAY  CLEAR     60  35  39 SE10      30.00F
APPLETON       PTCLDY    61  28  29 SE8       29.98F
OSHKOSH        CLEAR     59  33  37 SE8       30.00F
FOND DU LAC    CLEAR     60  35  39 SE5       30.00F
$$

WIZ022-050-052-030100-
EAST CENTRAL WISCONSIN

CITY           SKY/WX    TMP DP  RH WIND       PRES   REMARKS
EPHRAIM        FAIR      56  32  39 CALM      30.00S
STURGEON BAY   CLEAR     55  30  38 SE7       30.03F
MANITOWOC      CLEAR     57  35  43 MISG      30.02S
SHEBOYGAN      CLEAR     55  34  45 E6        30.02S
$$

LMZ563-521-522-541>543-030100-
LAKESHORE

STATION/POSITION TIME  TEMP    WIND        PRES    VSBY  WAVE
                       AIR SEA DIR/SP/G                  HT/PER
                 (UTC) (F)     (DEG/KT/KT) (MB)    (MI)  (FT/S)
SHEBOYGAN LKSHOR 0000   48      60/  5/  6 1016.9F
KEWAUNEE LKSHORE 2300   51      90/  1/  4 1015.9F
NORTHPORT PIER   2300   55     160/  4/  7 1016.3F
N MID LAKE BUOY  2350   47 39     CALM     1016.2F         0
CHAMBERS ISLAND  2300   60     150/  5/  9 1016.3S
MENOMINEE LKSHOR 2300   53     140/ 10/ 11 1015.0F
$$



USA.gov is the U.S. government's official web portal to all federal, state and local government web resources and services.